Torna al catalogo

FENGYUN 1C DEB

AttivoSSO
NORAD 33502·DEBRIS·🇨🇳 China

Lanciato May 10, 1999 da Taiyuan Satellite Launch Center

Loading…

Prossimi Passaggi (prossime 24 ore)

TLE

AggiornatoSource: Space-Track

Epoca: Sep 13, 2026, 19:24 UTC

1 33502U 99025DCF 26256.80898846  .00002920  00000-0  12335-2 0  9999
2 33502  99.0345 211.8212 0079392  82.8964 336.4468 14.24691940908695

Traccia FENGYUN 1C DEB in tempo reale con AllMySat

Download on the App Store